Bryce Canyon, UT

1:38 AM MST on December 16, 2019 (GMT -0700)
Bryce Canyon

Weather History for KBCE - August, 2019

Change the Weather History Date:

Thursday, August 15, 2019

  Actual Average Record
Temperature  
Mean Temperature 64 °F -  
Max Temperature 87 °F 75 °F 88 °F (1962)
Min Temperature 45 °F 45 °F 29 °F (1978)
Growing Degree Days 14 (Base 50)    
Moisture  
Dew Point 29 °F    
Average Humidity 29    
Maximum Humidity 53    
Minimum Humidity 12    
Precipitation  
Precipitation 0.00 in - - ()
Sea Level Pressure  
Sea Level Pressure 30.00 in    
Wind  
Wind Speed 7 mph (West)    
Max Wind Speed 14 mph    
Max Gust Speed 20 mph    
Visibility 10 miles    
Events      
Averages and records for this station are not official NWS values.
T = Trace of Precipitation, MM = Missing Value Source: NWS Daily Summary

Daily Weather History Graph

Daily Weather History Graph

Search for Another Location

Airport or City:

Astronomy

Aug. 15, 2019 Rise Set
Actual Time 6:44 AM MDT 8:21 PM MDT
Civil Twilight 6:16 AM MDT 8:49 PM MDT
Nautical Twilight 5:42 AM MDT 9:22 PM MDT
Astronomical Twilight 5:06 AM MDT 9:58 PM MDT
Moon 8:51 PM MDT (8/15) 6:43 AM MDT (8/15)
Length of Visible Light 14h 33m
Length of Day
13h 37m
Full, 100% of the Moon is Illuminated
Aug 15
Full
Aug 23
Last Quarter
Aug 30
New
Sep 5
First Quarter
Sep 13
Full

Hourly Weather History & Observations

Time (MDT) Temp. Windchill Dew Point Humidity Pressure Visibility Wind Dir Wind Speed Gust Speed Precip Events Conditions
12:53 AM 51.1 °F - 28.9 °F 43% 30.05 in 10.0 mi WSW 5.8 mph - N/A   Clear
1:53 AM 51.1 °F - 28.0 °F 41% 30.04 in 8.0 mi West 8.1 mph - N/A   Clear
2:53 AM 48.9 °F - 28.0 °F 44% 30.03 in 9.0 mi West 8.1 mph - N/A   Clear
3:53 AM 48.0 °F - 28.0 °F 46% 30.04 in 10.0 mi West 10.4 mph - N/A   Clear
4:53 AM 45.0 °F 41.2 °F 28.9 °F 53% 30.05 in 10.0 mi WSW 6.9 mph - N/A   Clear
5:53 AM 46.0 °F 41.9 °F 28.0 °F 50% 30.05 in 10.0 mi West 8.1 mph - N/A   Clear
6:53 AM 46.0 °F 42.5 °F 28.0 °F 50% 30.07 in 9.0 mi West 6.9 mph - N/A   Clear
7:53 AM 53.1 °F - 30.9 °F 43% 30.07 in 9.0 mi West 4.6 mph - N/A   Clear
8:53 AM 64.9 °F - 34.0 °F 32% 30.08 in 10.0 mi Calm Calm - N/A   Clear
9:53 AM 75.0 °F - 30.9 °F 20% 30.04 in 10.0 mi Calm Calm - N/A   Clear
10:53 AM 81.0 °F - 27.0 °F 14% 30.02 in 10.0 mi West 9.2 mph - N/A   Clear
11:53 AM 84.9 °F - 28.0 °F 13% 30.01 in 10.0 mi NNW 8.1 mph - N/A   Clear
12:53 PM 84.0 °F - 26.1 °F 12% 30.01 in 10.0 mi West 13.8 mph 19.6 mph N/A   Clear
1:53 PM 82.9 °F - 28.9 °F 14% 30.00 in 10.0 mi West 10.4 mph - N/A   Clear
2:53 PM 82.9 °F - 27.0 °F 13% 29.99 in 10.0 mi SW 10.4 mph - N/A   Clear
3:53 PM 84.9 °F - 27.0 °F 12% 29.96 in 10.0 mi SW 11.5 mph 17.3 mph N/A   Clear
4:53 PM 82.9 °F - 26.1 °F 13% 29.96 in 10.0 mi WSW 9.2 mph - N/A   Clear
5:53 PM 84.0 °F - 27.0 °F 13% 29.94 in 10.0 mi West 4.6 mph - N/A   Clear
6:53 PM 82.0 °F - 27.0 °F 13% 29.94 in 10.0 mi West 13.8 mph 18.4 mph N/A   Clear
7:53 PM 73.9 °F - 30.9 °F 21% 29.93 in 10.0 mi West 9.2 mph - N/A   Clear
8:53 PM 64.0 °F - 30.9 °F 29% 29.94 in 10.0 mi West 8.1 mph - N/A   Clear
9:53 PM 64.0 °F - 30.0 °F 28% 29.91 in 10.0 mi West 10.4 mph - N/A   Clear
10:53 PM 59.0 °F - 28.9 °F 32% 29.91 in 10.0 mi West 5.8 mph - N/A   Clear
11:53 PM 52.0 °F - 32.0 °F 47% 29.91 in 10.0 mi Calm Calm - N/A   Clear